AIC168 VABB-VECC

Flight info

Callsign AIC168
Flight time N/A
Altitude 37000
Route ANOLI2A NONEN Q19 KAMLO W108 NNP G450 JJS JJS2A
Aircraft B77W/H-SDE1E2E3FGHIJ2J3J4J5M1RWXY/LB1D1

Departure

Time 2026-04-30 10:22
Airport Chhatrapati Shivaji Maharaj International Airport (VABB)

Arrival

Time N/A
Airport Netaji Subhash Chandra Bose International Airport (VECC)
Time Latitude Longitude Altitude Speed Heading
2026-04-30 09:58 19.09478 72.87067 50 ft 0 kts 140°
2026-04-30 10:08 19.09481 72.87064 46 ft 3 kts 140°
2026-04-30 10:09 19.09502 72.87046 48 ft 4 kts 139°
2026-04-30 10:09 19.09519 72.87030 46 ft 4 kts 154°
2026-04-30 10:09 19.09543 72.87027 47 ft 4 kts 206°
2026-04-30 10:09 19.09561 72.87042 46 ft 4 kts 231°
2026-04-30 10:10 19.09575 72.87060 47 ft 0 kts 226°
2026-04-30 10:12 19.09572 72.87057 46 ft 1 kts 226°
2026-04-30 10:12 19.09562 72.87046 46 ft 3 kts 226°
2026-04-30 10:12 19.09545 72.87027 47 ft 4 kts 228°
2026-04-30 10:13 19.09521 72.86999 46 ft 6 kts 229°
2026-04-30 10:13 19.09491 72.86964 47 ft 7 kts 229°
2026-04-30 10:13 19.09462 72.86928 50 ft 6 kts 229°
2026-04-30 10:13 19.09433 72.86893 51 ft 7 kts 229°
2026-04-30 10:14 19.09396 72.86869 50 ft 6 kts 184°
2026-04-30 10:14 19.09365 72.86884 50 ft 5 kts 142°
2026-04-30 10:14 19.09294 72.86951 50 ft 8 kts 137°
2026-04-30 10:15 19.09262 72.86985 50 ft 6 kts 134°
2026-04-30 10:15 19.09237 72.87025 48 ft 7 kts 108°
2026-04-30 10:15 19.09235 72.87048 49 ft 3 kts 90°
2026-04-30 10:16 19.09234 72.87073 52 ft 5 kts 91°
2026-04-30 10:16 19.09235 72.87115 54 ft 7 kts 89°
2026-04-30 10:16 19.09235 72.87170 54 ft 8 kts 89°
2026-04-30 10:17 19.09208 72.87257 52 ft 6 kts 157°
2026-04-30 10:17 19.09102 72.87263 53 ft 9 kts 180°
2026-04-30 10:17 19.09055 72.87286 49 ft 7 kts 115°
2026-04-30 10:18 19.09051 72.87340 50 ft 8 kts 91°
2026-04-30 10:18 19.09052 72.87408 49 ft 10 kts 89°
2026-04-30 10:18 19.09052 72.87489 49 ft 12 kts 89°
2026-04-30 10:19 19.09055 72.87676 48 ft 13 kts 90°
2026-04-30 10:19 19.09057 72.87771 48 ft 13 kts 89°
2026-04-30 10:19 19.09058 72.87863 48 ft 13 kts 89°
2026-04-30 10:19 19.09059 72.87955 53 ft 9 kts 89°
2026-04-30 10:20 19.09065 72.88023 50 ft 7 kts 99°
2026-04-30 10:20 19.08974 72.88052 48 ft 10 kts 180°
2026-04-30 10:20 19.08903 72.88045 46 ft 10 kts 207°
2026-04-30 10:21 19.08888 72.87972 52 ft 10 kts 270°
2026-04-30 10:21 19.08888 72.87968 52 ft 0 kts 269°
2026-04-30 10:21 19.08887 72.87920 52 ft 24 kts 269°
2026-04-30 10:21 19.08880 72.87458 54 ft 101 kts 269°
2026-04-30 10:22 19.08865 72.86477 72 ft 161 kts 267°
2026-04-30 10:22 19.08817 72.85325 741 ft 157 kts 264°
2026-04-30 10:22 19.08798 72.84147 1235 ft 174 kts 269°
2026-04-30 10:22 19.08760 72.82803 1731 ft 187 kts 272°
2026-04-30 10:23 19.09322 72.81490 1984 ft 218 kts 314°
2026-04-30 10:23 19.10784 72.80832 2372 ft 248 kts 355°
2026-04-30 10:23 19.12494 72.81297 2966 ft 265 kts 27°
2026-04-30 10:23 19.13851 72.82637 3721 ft 272 kts 55°
2026-04-30 10:24 19.14713 72.84456 4398 ft 281 kts 64°
2026-04-30 10:24 19.15475 72.86388 5119 ft 290 kts 64°
2026-04-30 10:24 19.16293 72.88357 5906 ft 295 kts 63°
2026-04-30 10:24 19.17154 72.90358 6641 ft 301 kts 62°
2026-04-30 10:25 19.18033 72.92376 7471 ft 302 kts 62°
2026-04-30 10:25 19.18925 72.94408 8278 ft 307 kts 62°
2026-04-30 10:25 19.19829 72.96460 9120 ft 309 kts 62°
2026-04-30 10:25 19.20749 72.98542 9855 ft 315 kts 63°
2026-04-30 10:26 19.21691 73.00671 10388 ft 328 kts 63°
2026-04-30 10:26 19.22700 73.02943 10625 ft 354 kts 63°
2026-04-30 10:26 19.23786 73.05387 10831 ft 380 kts 63°
2026-04-30 10:26 19.24940 73.07989 11246 ft 397 kts 63°
2026-04-30 10:27 19.26118 73.10653 12035 ft 403 kts 63°
2026-04-30 10:27 19.27309 73.13351 12976 ft 405 kts 62°
2026-04-30 10:27 19.28504 73.16057 13967 ft 406 kts 63°
2026-04-30 10:27 19.29709 73.18786 14669 ft 414 kts 63°
2026-04-30 10:28 19.30935 73.21560 15472 ft 416 kts 63°
2026-04-30 10:28 19.32167 73.24349 16242 ft 421 kts 62°
2026-04-30 10:28 19.33417 73.27181 16976 ft 427 kts 62°
2026-04-30 10:28 19.34661 73.30002 17748 ft 430 kts 63°
2026-04-30 10:29 19.35956 73.32936 18374 ft 438 kts 62°
2026-04-30 10:29 19.37236 73.35836 19025 ft 442 kts 62°
2026-04-30 10:29 19.38556 73.38832 19780 ft 444 kts 62°
2026-04-30 10:29 19.39848 73.41767 20483 ft 447 kts 62°
2026-04-30 10:30 19.41169 73.44769 21167 ft 451 kts 61°
2026-04-30 10:30 19.42502 73.47798 21851 ft 455 kts 61°
2026-04-30 10:30 19.43844 73.50848 22517 ft 460 kts 60°
2026-04-30 10:30 19.45201 73.53935 23180 ft 464 kts 60°
2026-04-30 10:31 19.46569 73.57049 23761 ft 468 kts 60°
2026-04-30 10:31 19.47946 73.60185 24283 ft 471 kts 60°
2026-04-30 10:31 19.49332 73.63343 24796 ft 475 kts 60°
2026-04-30 10:31 19.50730 73.66531 25319 ft 478 kts 60°
2026-04-30 10:32 19.52139 73.69727 25766 ft 481 kts 60°
2026-04-30 10:32 19.53552 73.72958 26156 ft 486 kts 60°
2026-04-30 10:32 19.54755 73.75718 26527 ft 489 kts 61°
2026-04-30 10:32 19.56188 73.79002 26995 ft 492 kts 61°
2026-04-30 10:33 19.57630 73.82303 27430 ft 495 kts 61°
2026-04-30 10:33 19.59081 73.85623 27836 ft 498 kts 61°